N208SG VNKT-VNLK

Flight info

Callsign N208SG
Flight time 0h 30m
Altitude 12500
Route KIMTI DCT VNPL
Aircraft C208/L-SBDFGRY/S

Departure

Time 2026-04-21 09:52
Airport Tribhuvan International Airport (VNKT)

Arrival

Time 2026-04-21 10:22
Airport Tenzing-Hillary Airport (VNLK)
Time Latitude Longitude Altitude Speed Heading
2026-04-21 09:43 27.69886 85.35775 4370 ft 0 kts 292°
2026-04-21 09:45 27.69891 85.35764 4356 ft 2 kts 318°
2026-04-21 09:45 27.69912 85.35768 4366 ft 3 kts 36°
2026-04-21 09:46 27.69938 85.35817 4370 ft 9 kts 65°
2026-04-21 09:46 27.69956 85.35869 4372 ft 6 kts 70°
2026-04-21 09:46 27.69969 85.35916 4366 ft 6 kts 73°
2026-04-21 09:46 27.69994 85.35947 4370 ft 4 kts 29°
2026-04-21 09:47 27.70021 85.35961 4369 ft 6 kts 21°
2026-04-21 09:47 27.70089 85.35991 4375 ft 14 kts 22°
2026-04-21 09:47 27.70198 85.36040 4379 ft 15 kts 23°
2026-04-21 09:47 27.70258 85.36068 4371 ft 9 kts 21°
2026-04-21 09:48 27.70354 85.36110 4378 ft 18 kts 24°
2026-04-21 09:48 27.70432 85.36147 4384 ft 8 kts 22°
2026-04-21 09:48 27.70466 85.36162 4387 ft 3 kts 21°
2026-04-21 09:48 27.70471 85.36164 4387 ft 0 kts 20°
2026-04-21 09:49 27.70475 85.36166 4387 ft 4 kts 20°
2026-04-21 09:49 27.70517 85.36186 4388 ft 7 kts 26°
2026-04-21 09:49 27.70553 85.36209 4389 ft 6 kts 36°
2026-04-21 09:49 27.70577 85.36255 4391 ft 6 kts 73°
2026-04-21 09:50 27.70589 85.36296 4392 ft 7 kts 68°
2026-04-21 09:50 27.70609 85.36328 4392 ft 9 kts 30°
2026-04-21 09:50 27.70833 85.36430 4397 ft 9 kts 22°
2026-04-21 09:51 27.70825 85.36444 4397 ft 0 kts 206°
2026-04-21 09:51 27.70752 85.36408 4396 ft 38 kts 202°
2026-04-21 09:51 27.70324 85.36215 4385 ft 91 kts 202°
2026-04-21 09:52 27.69669 85.35967 4585 ft 106 kts 206°
2026-04-21 09:52 27.68947 85.35687 4845 ft 117 kts 207°
2026-04-21 09:52 27.68131 85.35402 5133 ft 128 kts 198°
2026-04-21 09:52 27.67288 85.35100 5519 ft 124 kts 205°
2026-04-21 09:53 27.66477 85.35042 5965 ft 120 kts 163°
2026-04-21 09:53 27.65873 85.35726 6204 ft 134 kts 113°
2026-04-21 09:53 27.65609 85.36780 6372 ft 142 kts 108°
2026-04-21 09:53 27.65218 85.37780 6686 ft 137 kts 119°
2026-04-21 09:54 27.64836 85.38770 6998 ft 137 kts 115°
2026-04-21 09:54 27.64519 85.39762 7352 ft 131 kts 112°
2026-04-21 09:54 27.64227 85.40695 7737 ft 128 kts 110°
2026-04-21 09:54 27.63951 85.41660 7934 ft 125 kts 111°
2026-04-21 09:55 27.63656 85.42553 8322 ft 119 kts 111°
2026-04-21 09:55 27.63374 85.43391 8611 ft 107 kts 109°
2026-04-21 09:55 27.63176 85.44157 8941 ft 97 kts 100°
2026-04-21 09:55 27.63039 85.44940 9103 ft 109 kts 97°
2026-04-21 09:56 27.62909 85.45835 9268 ft 124 kts 97°
2026-04-21 09:56 27.62788 85.46846 9418 ft 140 kts 95°
2026-04-21 09:56 27.62644 85.47973 9550 ft 149 kts 95°
2026-04-21 09:56 27.62490 85.49138 9748 ft 152 kts 97°
2026-04-21 09:57 27.62355 85.50340 9953 ft 158 kts 96°
2026-04-21 09:57 27.62207 85.51577 10152 ft 160 kts 96°
2026-04-21 09:57 27.62053 85.52815 10376 ft 159 kts 96°
2026-04-21 09:57 27.61909 85.54047 10620 ft 158 kts 96°
2026-04-21 09:58 27.61765 85.55264 10849 ft 159 kts 96°
2026-04-21 09:58 27.61620 85.56502 11094 ft 160 kts 96°
2026-04-21 09:58 27.61472 85.57755 11313 ft 161 kts 97°
2026-04-21 09:58 27.61326 85.58996 11570 ft 159 kts 96°
2026-04-21 09:59 27.61174 85.60236 11818 ft 159 kts 96°
2026-04-21 09:59 27.61024 85.61469 12045 ft 159 kts 96°
2026-04-21 09:59 27.60868 85.62729 12179 ft 166 kts 96°
2026-04-21 09:59 27.60702 85.64037 12300 ft 171 kts 96°
2026-04-21 10:00 27.60534 85.65385 12380 ft 176 kts 96°
2026-04-21 10:00 27.60364 85.66752 12422 ft 181 kts 96°
2026-04-21 10:00 27.60194 85.68180 12439 ft 186 kts 96°
2026-04-21 10:00 27.60017 85.69640 12441 ft 190 kts 96°
2026-04-21 10:01 27.59835 85.71127 12448 ft 193 kts 97°
2026-04-21 10:01 27.59662 85.72621 12439 ft 192 kts 96°
2026-04-21 10:01 27.59486 85.74118 12463 ft 193 kts 96°
2026-04-21 10:01 27.59307 85.75622 12463 ft 194 kts 97°
2026-04-21 10:02 27.58940 85.78642 12473 ft 195 kts 96°
2026-04-21 10:02 27.58761 85.80138 12472 ft 195 kts 96°
2026-04-21 10:02 27.58586 85.81652 12474 ft 195 kts 96°
2026-04-21 10:03 27.58408 85.83168 12473 ft 196 kts 96°
2026-04-21 10:03 27.58230 85.84695 12469 ft 196 kts 96°
2026-04-21 10:03 27.58047 85.86218 12469 ft 196 kts 97°
2026-04-21 10:03 27.57864 85.87744 12468 ft 196 kts 97°
2026-04-21 10:04 27.57688 85.89268 12495 ft 196 kts 96°
2026-04-21 10:04 27.57516 85.90772 12498 ft 196 kts 96°
2026-04-21 10:04 27.57336 85.92300 12492 ft 197 kts 96°
2026-04-21 10:04 27.57161 85.93829 12498 ft 197 kts 96°
2026-04-21 10:05 27.56990 85.95360 12501 ft 197 kts 96°
2026-04-21 10:05 27.56815 85.96891 12499 ft 197 kts 96°
2026-04-21 10:05 27.56639 85.98423 12478 ft 197 kts 96°
2026-04-21 10:05 27.56461 85.99942 12479 ft 195 kts 97°
2026-04-21 10:06 27.56286 86.01453 12496 ft 194 kts 97°
2026-04-21 10:06 27.56124 86.02932 12499 ft 192 kts 95°
2026-04-21 10:06 27.55956 86.04429 12498 ft 192 kts 96°
2026-04-21 10:06 27.55785 86.05927 12496 ft 193 kts 96°
2026-04-21 10:07 27.55613 86.07430 12480 ft 193 kts 96°
2026-04-21 10:07 27.55447 86.08924 12494 ft 192 kts 96°
2026-04-21 10:07 27.55280 86.10410 12497 ft 192 kts 96°
2026-04-21 10:07 27.55108 86.11906 12496 ft 193 kts 96°
2026-04-21 10:08 27.54930 86.13413 12500 ft 194 kts 97°
2026-04-21 10:08 27.54757 86.14895 12491 ft 193 kts 96°
2026-04-21 10:08 27.54587 86.16390 12498 ft 192 kts 96°
2026-04-21 10:08 27.54420 86.17887 12503 ft 193 kts 96°
2026-04-21 10:09 27.54249 86.19397 12483 ft 195 kts 96°
2026-04-21 10:09 27.54075 86.20921 12486 ft 197 kts 96°
2026-04-21 10:09 27.53897 86.22453 12474 ft 197 kts 96°
2026-04-21 10:09 27.53729 86.23984 12475 ft 196 kts 96°
2026-04-21 10:10 27.53562 86.25515 12467 ft 197 kts 97°
2026-04-21 10:10 27.53396 86.27017 12475 ft 196 kts 99°
2026-04-21 10:10 27.52846 86.28416 12474 ft 196 kts 126°
2026-04-21 10:10 27.51898 86.29511 12491 ft 195 kts 143°
2026-04-21 10:11 27.50803 86.30418 12467 ft 195 kts 147°
2026-04-21 10:11 27.49681 86.31249 12457 ft 192 kts 149°
2026-04-21 10:11 27.48569 86.32087 12490 ft 193 kts 148°
2026-04-21 10:11 27.47437 86.32907 12486 ft 194 kts 149°
2026-04-21 10:12 27.46308 86.33723 12481 ft 196 kts 146°
2026-04-21 10:12 27.45386 86.34858 12511 ft 198 kts 123°
2026-04-21 10:12 27.44854 86.36280 12499 ft 197 kts 105°
2026-04-21 10:12 27.44632 86.37790 12502 ft 195 kts 94°
2026-04-21 10:13 27.44635 86.39303 12510 ft 193 kts 85°
2026-04-21 10:13 27.44721 86.40805 12504 ft 192 kts 84°
2026-04-21 10:13 27.44823 86.42302 12516 ft 191 kts 84°
2026-04-21 10:13 27.44950 86.43801 12531 ft 193 kts 83°
2026-04-21 10:14 27.45087 86.45290 12525 ft 194 kts 82°
2026-04-21 10:14 27.45231 86.46822 12396 ft 199 kts 82°
2026-04-21 10:14 27.45523 86.48354 12280 ft 202 kts 69°
2026-04-21 10:14 27.46101 86.49789 12193 ft 202 kts 60°
2026-04-21 10:15 27.46780 86.51160 12073 ft 200 kts 58°
2026-04-21 10:15 27.47485 86.52510 11962 ft 199 kts 57°
2026-04-21 10:15 27.48194 86.53848 11821 ft 199 kts 56°
2026-04-21 10:15 27.48905 86.55185 11704 ft 198 kts 56°
2026-04-21 10:16 27.49617 86.56503 11613 ft 195 kts 56°
2026-04-21 10:16 27.50552 86.57532 11568 ft 190 kts 34°
2026-04-21 10:16 27.51673 86.58307 11564 ft 188 kts 24°
2026-04-21 10:16 27.52898 86.58805 11534 ft 186 kts 17°
2026-04-21 10:17 27.54131 86.59241 11570 ft 185 kts 16°
2026-04-21 10:17 27.55364 86.59638 11669 ft 184 kts 15°
2026-04-21 10:17 27.56592 86.60019 11684 ft 183 kts 14°
2026-04-21 10:17 27.57806 86.60520 11614 ft 189 kts 26°
2026-04-21 10:18 27.58894 86.61342 11585 ft 188 kts 43°
2026-04-21 10:18 27.59607 86.62549 11434 ft 188 kts 71°
2026-04-21 10:18 27.59824 86.63999 11264 ft 186 kts 90°
2026-04-21 10:18 27.59804 86.65456 11070 ft 182 kts 92°
2026-04-21 10:19 27.59893 86.66868 10617 ft 181 kts 79°
2026-04-21 10:19 27.60441 86.68035 10526 ft 165 kts 42°
2026-04-21 10:19 27.61446 86.68589 10417 ft 153 kts 15°
2026-04-21 10:19 27.62395 86.68818 10447 ft 126 kts 11°
2026-04-21 10:20 27.63216 86.68940 10286 ft 117 kts 358°
2026-04-21 10:20 27.63981 86.68978 10156 ft 106 kts
2026-04-21 10:20 27.64718 86.69110 9936 ft 108 kts 14°
2026-04-21 10:20 27.65409 86.69406 9654 ft 100 kts 18°
2026-04-21 10:21 27.66034 86.69701 9631 ft 99 kts 27°
2026-04-21 10:21 27.66667 86.70018 9557 ft 96 kts 20°
2026-04-21 10:21 27.67239 86.70401 9360 ft 96 kts 43°
2026-04-21 10:21 27.67650 86.70967 9164 ft 88 kts 52°
2026-04-21 10:22 27.67966 86.71527 9137 ft 88 kts 62°
2026-04-21 10:22 27.68253 86.72127 9161 ft 84 kts 57°
2026-04-21 10:22 27.68545 86.72684 9271 ft 83 kts 65°
2026-04-21 10:22 27.68755 86.73091 9470 ft 21 kts 61°
2026-04-21 10:23 27.68771 86.73165 9478 ft 5 kts 144°
2026-04-21 10:23 27.68748 86.73179 9479 ft 3 kts 149°
2026-04-21 10:23 27.68747 86.73208 9479 ft 3 kts 55°
2026-04-21 10:23 27.68752 86.73200 9479 ft 0 kts 252°